Torna al catalogo

STARLINK-2498

AttivoComunicazioniVLEO
NORAD 48326·PAYLOAD·🇺🇸 United States

Lanciato Apr 29, 2021 da Cape Canaveral Space Force Station

Loading…

Prossimi Passaggi (prossime 24 ore)

TLE

AggiornatoSource: CelesTrak SupGP

Epoca: Sep 14, 2026, 21:37 UTC

1 48326C 21036BC  26257.90118056  .00017879  00000+0  57492-3 0  2575
2 48326  53.1584 300.5594 0001283  82.8064 267.9907 15.31693967    10

Traccia STARLINK-2498 in tempo reale con AllMySat

Download on the App Store